USTRANSCOM 7744


WSAP
Paya Lebar Airport
Singapore, SG
FJDG
Diego Garcia
Diego Garcia, GB

Activity Log

Date Flight Route Aircraft Duration
No Flights Yet

Route Details

Aircraft Information
Primary: Boeing 757-200SF
Backup: Not Available
Route Data
Distance: 1958nm
Sched. Duration: 5h 29m
Avg. Duration: 0h 00m (-530m)
Times Flown: 0
Recm'd Route: ASUNA R469 PKU N633 PIBED R212 GUDUG
Planned Altitude: 34,000ft
Origin Wx: WSAP 252000Z 04005KT 9999 FEW016 BKN150 25/23 Q1009
Dest. Wx: FJDG 250055Z 27010KT 9000 -SHRA FEW018 BKN047 OVC080 25/24 A2983 RMK SLP098 P0003 T02480235
Notes: USTRANSCOM CONTRACT FLIGHT

Financial History
Total Freight: 0lbs
Average Load: 0lbs/flt
Fuel Used: 0lbs
Avg. Fuel Used: 0lbs/flt
Fuel Expense: $0
Avg. Fuel Expense: $0
Avg. Fuel Cost: $0/lbs
Total Gross Income: $0
Pilot Pay: $0
Total Expenses: $0
Total Revenue: $0
Average Revenue: $0